[[{"header":{"parameterUnit":"m.s-1","parameterCategory":1,"la1":30.2991,"la2":30.254,"lo1":-89.0895,"lo2":-89.0444,"dy":0.0017,"dx":0.0017,"nx":28,"ny":28,"refTime":"2024-07-20T09:00:00:Z","depth":0,"parameterNumber":2,"parameterNumberName":"U-component_of_WINDS"},"data":[0,0,0,0,0,0,0,0,0,0,0,0,0,0,0,0,0,0,0,0,0,0,0,0,0,0,0,0,0,0,0,0,0,0,0,0,0,0,0,0,0,0,0,0,0,0,0,0,0,0,0,0,0,0,0,0,0,0,1.6384,1.6384,0,1.6384,1.6384,1.6384,1.6363,1.6362,1.6362,1.6361,1.6361,1.6361,1.6362,0,0,0,0,0,0,0,0,0,0,0,0,0,1.6367,1.6367,1.6384,1.6384,1.6384,1.6384,1.6384,1.6384,1.6363,1.6362,1.6361,1.6361,1.636,1.6361,1.6362,0,0,0,0,0,0,0,0,0,0,0,0,0,1.6371,1.6367,1.6384,1.6374,1.6373,1.6384,1.6384,1.6384,1.6363,1.6362,1.6361,1.636,1.636,1.6361,1.6362,1.6383,0,0,1.6364,1.6364,0,0,0,0,0,0,0,0,1.6371,1.6372,1.6375,1.6375,1.6373,1.6373,1.6378,1.6384,1.6363,1.6367,1.6361,1.636,1.6365,1.6366,1.6367,1.6383,1.6383,1.6364,1.6365,1.6365,1.6365,0,0,0,0,0,0,0,1.6371,1.6372,1.6384,1.6375,1.6374,1.6369,1.6369,1.6379,1.6371,1.6366,1.6365,1.6365,1.6365,1.6367,1.6367,1.6383,1.6364,1.6365,1.6365,1.6365,1.6415,1.6416,0,0,0,0,0,0,1.6372,1.6372,1.6384,1.6384,1.637,1.637,1.637,1.6374,1.637,1.6369,1.6366,1.6364,1.6366,1.6366,1.6367,1.6391,1.6365,1.6366,1.6366,1.6414,1.6416,1.6416,0,0,0,0,0,0,1.6372,1.6373,1.6384,1.6378,1.6379,1.6371,1.6376,1.6374,1.6376,1.637,1.6368,1.6369,1.6365,1.6366,1.6379,1.6391,1.6366,1.6367,1.6413,1.6415,1.6416,1.6439,0,0,0,0,0,0,1.6371,1.6373,1.6381,1.6378,1.6379,1.6396,1.6377,1.6375,1.6377,1.6375,1.6373,1.6372,1.6364,1.6378,1.638,1.6391,1.6367,1.6412,1.6414,1.6416,1.6438,1.6441,1.6445,0,0,0,0,0,1.6371,1.6388,1.6382,1.6383,1.6389,1.6397,1.6398,1.6389,1.6378,1.6386,1.6382,1.6372,1.6389,1.6379,1.6381,1.6393,1.6412,1.6414,1.6415,1.6436,1.6441,1.6445,0,0,0,0,0,0,1.6393,1.6387,1.638,1.6397,1.6398,1.6393,1.6403,1.6394,1.6398,1.6396,1.6385,1.6384,1.6399,1.6398,1.6387,1.6413,1.6399,1.6401,1.6414,1.6418,1.6421,1.6421,1.6368,0,0,0,0,0,1.64,1.6407,1.6402,1.6417,1.6418,1.6411,1.6414,1.6407,1.6407,1.6407,1.6404,1.6405,1.641,1.6414,1.6419,1.6438,1.6436,1.6447,1.645,1.6453,1.6455,1.6464,1.6468,1.6423,1.6423,1.6423,0,0,1.6414,1.6412,1.6417,1.6422,1.6421,1.6429,1.6411,1.642,1.6425,1.6409,1.642,1.6418,1.6418,1.6434,1.6441,1.6433,1.6468,1.6456,1.6458,1.6458,1.6467,1.6471,1.6475,1.6424,1.6424,1.6424,0,0,1.6444,1.6443,1.6455,1.6455,1.6455,1.645,1.6453,1.645,1.6448,1.646,1.6448,1.6454,1.6464,1.6464,1.6466,1.6495,1.6485,1.6497,1.6515,1.6524,1.6528,1.6531,1.6541,1.6545,1.65,1.65,1.65,0,1.6461,1.6472,1.6463,1.6472,1.6474,1.646,1.6472,1.6473,1.6474,1.6476,1.6468,1.6479,1.6478,1.6494,1.6501,1.6503,1.6506,1.6497,1.6528,1.6531,1.6534,1.6543,1.6547,1.6501,1.6501,1.6501,1.6501,0,1.6493,1.6501,1.6511,1.6512,1.6516,1.6527,1.6519,1.6524,1.6517,1.6513,1.6525,1.6523,1.6527,1.653,1.6524,1.6545,1.654,1.653,1.6515,1.654,1.6548,1.6552,1.6503,1.6502,1.6502,1.6502,0,0,1.6536,1.6533,1.6536,1.6536,1.6535,1.6541,1.6551,1.6555,1.6559,1.656,1.6568,1.6577,1.6568,1.6569,1.6563,1.6571,1.6594,1.656,1.656,1.6566,1.6616,1.6622,1.6626,1.6588,1.6588,1.6589,1.6615,0,1.6564,1.6581,1.6573,1.6591,1.6597,1.6584,1.6593,1.6593,1.659,1.6595,1.6591,1.6597,1.6585,1.6586,1.6593,1.6589,1.6603,1.6588,1.6594,1.6595,1.6594,1.6631,1.6638,1.6663,1.6619,1.6619,1.662,0,1.6599,1.6601,1.662,1.6617,1.6619,1.6627,1.663,1.6635,1.6635,1.6632,1.6634,1.6625,1.6635,1.6621,1.6633,1.6623,1.6625,1.6624,1.6625,1.6624,1.6608,1.663,1.6671,1.6674,1.6625,1.6624,1.6624,0,1.6627,1.6635,1.6647,1.6648,1.6645,1.6651,1.665,1.6649,1.6651,1.6654,1.6655,1.6659,1.6661,1.6664,1.6657,1.6647,1.6671,1.6656,1.6668,1.6668,1.6672,1.6672,1.6713,1.6676,1.6676,1.6676,1.6676,0,1.6658,1.667,1.666,1.6667,1.6679,1.667,1.6683,1.668,1.668,1.6686,1.6675,1.6681,1.6672,1.6677,1.6672,1.6683,1.6684,1.6682,1.668,1.6682,1.6682,1.6682,1.668,1.6677,1.6676,1.6676,1.6676,0,1.6691,1.6685,1.6697,1.6693,1.6693,1.6702,1.6699,1.6705,1.6701,1.6709,1.6711,1.6704,1.671,1.6703,1.6709,1.6705,1.672,1.6716,1.6719,1.6718,1.673,1.6729,1.6771,1.6776,1.6737,1.6738,1.6738,0,1.6711,1.6719,1.6717,1.672,1.672,1.6726,1.6728,1.672,1.6723,1.6723,1.673,1.6734,1.6737,1.6747,1.6743,1.6747,1.6742,1.6757,1.6743,1.6745,1.6741,1.6741,1.6741,1.676,1.676,1.6761,1.6761,0,1.6746,1.6743,1.6747,1.675,1.6754,1.6756,1.6757,1.676,1.6752,1.6756,1.6761,1.6764,1.6769,1.6774,1.6776,1.6775,1.6767,1.6766,1.6769,1.677,1.6772,1.677,1.6726,1.6765,1.6764,1.6764,1.6764,1.6764,1.6773,1.6779,1.6778,1.6783,1.6783,1.6785,1.679,1.6787,1.6791,1.6795,1.679,1.6797,1.6796,1.6799,1.6799,1.6804,1.6797,1.6802,1.6803,1.6804,1.6805,1.6772,1.6805,1.6804,1.6804,1.6804,1.6804,0,1.6807,1.6805,1.681,1.6812,1.6816,1.6808,1.6808,1.6812,1.6818,1.6818,1.6822,1.6828,1.6832,1.6829,1.6833,1.6837,1.6833,1.6838,1.6837,1.6837,1.6811,1.6808,1.6842,1.6842,1.6842,1.6842,1.6842,1.6842,1.6825,1.6835,1.6832,1.6842,1.6841,1.6847,1.6848,1.6849,1.6849,1.6857,1.686,1.6858,1.6857,1.686,1.6864,1.6863,1.6864,1.687,1.6868,1.6843,1.6839,1.6836,1.6832,1.6871,1.6871,1.6893,1.6894,1.6894]},{"header":{"parameterUnit":"m.s-1","parameterCategory":1,"la1":30.2991,"la2":30.254,"lo1":-89.0895,"lo2":-89.0444,"dy":0.0017,"dx":0.0017,"nx":28,"ny":28,"refTime":"2024-07-20T09:00:00:Z","depth":0,"parameterNumber":3,"parameterNumberName":"V-component_of_WINDS"},"data":[0,0,0,0,0,0,0,0,0,0,0,0,0,0,0,0,0,0,0,0,0,0,0,0,0,0,0,0,0,0,0,0,0,0,0,0,0,0,0,0,0,0,0,0,0,0,0,0,0,0,0,0,0,0,0,0,0,0,1.6329,1.633,0,1.6415,1.6416,1.6417,1.6457,1.6457,1.6457,1.6457,1.6542,1.6544,1.6547,0,0,0,0,0,0,0,0,0,0,0,0,0,1.6195,1.6197,1.6329,1.633,1.6331,1.6415,1.6416,1.6417,1.6457,1.6457,1.6457,1.6457,1.6541,1.6544,1.6547,0,0,0,0,0,0,0,0,0,0,0,0,0,1.6264,1.6198,1.6329,1.6361,1.6365,1.6415,1.6416,1.6418,1.6457,1.6457,1.6457,1.6457,1.654,1.6544,1.6547,1.6571,0,0,1.6558,1.656,0,0,0,0,0,0,0,0,1.626,1.6269,1.6355,1.6359,1.6363,1.6425,1.64,1.6469,1.6457,1.6422,1.6457,1.6457,1.6503,1.651,1.6526,1.6575,1.6578,1.6558,1.656,1.6562,1.6563,0,0,0,0,0,0,0,1.6256,1.6266,1.6363,1.6356,1.6361,1.637,1.638,1.6413,1.6462,1.6425,1.6428,1.6438,1.6505,1.6522,1.6528,1.658,1.6558,1.6561,1.6563,1.6565,1.665,1.665,0,0,0,0,0,0,1.6246,1.6261,1.636,1.6366,1.6311,1.6372,1.6383,1.6405,1.6462,1.647,1.6438,1.6439,1.6517,1.6524,1.6531,1.6562,1.6562,1.6565,1.6567,1.665,1.665,1.665,0,0,0,0,0,0,1.6243,1.6254,1.6357,1.6314,1.6328,1.6375,1.6399,1.6407,1.6424,1.6471,1.648,1.6447,1.6517,1.6526,1.656,1.6565,1.6567,1.657,1.665,1.665,1.665,1.6623,0,0,0,0,0,0,1.6239,1.6253,1.6264,1.6314,1.633,1.6386,1.64,1.6409,1.6431,1.6434,1.6482,1.649,1.6517,1.6555,1.6564,1.657,1.6573,1.6649,1.665,1.665,1.6624,1.6622,1.6621,0,0,0,0,0,1.6234,1.6252,1.6264,1.6276,1.6344,1.6386,1.6395,1.6427,1.6431,1.6441,1.6471,1.6488,1.6563,1.6558,1.6569,1.6576,1.6649,1.665,1.665,1.6624,1.6622,1.6621,0,0,0,0,0,0,1.62,1.626,1.6273,1.6309,1.6342,1.6392,1.6407,1.6424,1.6456,1.6458,1.6495,1.6506,1.6536,1.6559,1.6553,1.66,1.6608,1.661,1.6584,1.6583,1.6582,1.6576,1.6576,0,0,0,0,0,1.6197,1.6227,1.6276,1.6303,1.6319,1.6359,1.6379,1.64,1.6436,1.645,1.6483,1.6516,1.6546,1.6566,1.6597,1.6627,1.6637,1.6637,1.6635,1.6634,1.6636,1.6652,1.6652,1.6651,1.6651,1.6651,0,0,1.619,1.6226,1.6243,1.6297,1.6325,1.6354,1.6371,1.6401,1.6422,1.6454,1.6489,1.6513,1.6552,1.6584,1.66,1.6604,1.6638,1.6635,1.6633,1.6636,1.6652,1.6652,1.6652,1.6652,1.6652,1.6652,0,0,1.6193,1.6224,1.6249,1.6277,1.6319,1.6346,1.6352,1.64,1.6417,1.6452,1.6477,1.6501,1.6554,1.6581,1.6601,1.6612,1.6629,1.6621,1.6614,1.6629,1.6629,1.6629,1.6633,1.6633,1.6622,1.6622,1.6622,0,1.618,1.6225,1.6259,1.6287,1.631,1.634,1.6365,1.639,1.644,1.6454,1.6459,1.6525,1.6553,1.6591,1.6593,1.6609,1.6616,1.6616,1.6627,1.6627,1.6628,1.6631,1.6632,1.6621,1.6621,1.6621,1.6621,0,1.6205,1.6236,1.6251,1.6299,1.6323,1.6349,1.6386,1.6406,1.6424,1.645,1.6484,1.6519,1.6557,1.6568,1.6587,1.6608,1.6609,1.662,1.6628,1.6626,1.663,1.6631,1.6619,1.6619,1.662,1.662,0,0,1.6191,1.6257,1.6261,1.6283,1.6332,1.6355,1.6382,1.642,1.6436,1.6468,1.6491,1.6534,1.6544,1.6567,1.6588,1.6602,1.6607,1.6611,1.6612,1.6608,1.6631,1.6622,1.6624,1.6618,1.6618,1.6618,1.6627,0,1.62,1.6251,1.6281,1.6319,1.6347,1.6375,1.6398,1.6429,1.6454,1.648,1.6506,1.6536,1.6547,1.656,1.6575,1.6603,1.6612,1.6603,1.6638,1.6639,1.6628,1.6626,1.6618,1.6624,1.6629,1.6629,1.6629,0,1.6218,1.6251,1.6291,1.6336,1.6348,1.6369,1.6405,1.643,1.6465,1.6482,1.6507,1.6528,1.6556,1.6561,1.6599,1.6592,1.6608,1.6623,1.6624,1.6629,1.6634,1.663,1.6627,1.6628,1.6632,1.6632,1.6632,0,1.6203,1.6257,1.6288,1.6306,1.6358,1.6371,1.6393,1.6429,1.6449,1.648,1.6493,1.6527,1.6545,1.657,1.6599,1.66,1.6634,1.6641,1.6647,1.6646,1.6653,1.6653,1.6653,1.6663,1.6663,1.6663,1.6663,0,1.621,1.6234,1.6282,1.6301,1.6327,1.6361,1.6386,1.641,1.6441,1.6464,1.649,1.6511,1.6548,1.6573,1.6596,1.6623,1.6631,1.6645,1.665,1.6643,1.6641,1.6654,1.6654,1.6664,1.6664,1.6664,1.6663,0,1.6198,1.6231,1.6267,1.6313,1.6325,1.6342,1.6381,1.64,1.6425,1.6454,1.6462,1.6501,1.6531,1.6563,1.6604,1.662,1.6646,1.6654,1.6634,1.6638,1.6641,1.664,1.665,1.6653,1.6661,1.6661,1.6661,0,1.6201,1.622,1.6268,1.6285,1.6307,1.6335,1.6356,1.6389,1.6409,1.645,1.6463,1.6496,1.6524,1.6571,1.6602,1.6633,1.6642,1.6643,1.6647,1.6638,1.6642,1.664,1.6642,1.6642,1.6642,1.6642,1.6641,0,1.6202,1.6217,1.6246,1.6281,1.6305,1.6333,1.6363,1.6376,1.6414,1.6435,1.6467,1.6489,1.6531,1.6562,1.6597,1.6618,1.6636,1.664,1.6643,1.6635,1.6623,1.6629,1.6631,1.664,1.664,1.664,1.664,1.664,1.6197,1.6215,1.6251,1.6282,1.6308,1.6334,1.6354,1.6381,1.6408,1.6446,1.6463,1.6494,1.6527,1.6576,1.6597,1.6621,1.6626,1.663,1.6632,1.6632,1.663,1.6618,1.6627,1.6628,1.6628,1.6628,1.6628,0,1.6199,1.6224,1.6252,1.6292,1.6316,1.6331,1.6364,1.6383,1.6411,1.644,1.6467,1.6503,1.6533,1.6566,1.6598,1.6611,1.662,1.6618,1.6618,1.6622,1.6624,1.6618,1.661,1.661,1.661,1.661,1.661,1.661,1.6203,1.6233,1.6252,1.6294,1.6318,1.635,1.6367,1.6391,1.6415,1.6454,1.648,1.6501,1.6531,1.6565,1.6593,1.6602,1.6612,1.6608,1.6619,1.6621,1.6622,1.6623,1.6618,1.661,1.661,1.6616,1.6616,1.6616]}]]